MESHWX-2 Weather Reports


time (UTC)temp
F
wind
direction
speed
knots
gust
knots
rain 1hr
in
rain 24hr
in
rain mn
in
humidity
%
barometer
mb
20260902201503 67 0.0 0.0 0.00 0.00 0.00 46 885.3
20260902201435 68 0.0 0.0 0.00 0.00 0.00 46 885.2
20260902194102 68 0.0 0.0 0.00 0.00 0.00 46 885.2
20260902194035 68 0.0 0.0 0.00 0.00 0.00 46 885.1
20260902190701 68 0.0 0.0 0.00 0.00 0.00 46 885.1
20260902190635 67 0.0 0.0 0.00 0.00 0.00 46 885.1
20260902183325 67 0.0 0.0 0.00 0.00 0.00 46 885.1
20260902183301 67 0.0 0.0 0.00 0.00 0.00 46 885.1
20260902183234 68 0.0 0.0 0.00 0.00 0.00 46 885.1
20260902175800 68 0.0 0.0 0.00 0.00 0.00 46 885.1
20260902175733 67 0.0 0.0 0.00 0.00 0.00 47 884.8
20260902172500 67 0.0 0.0 0.00 0.00 0.00 47 884.8
20260902172423 69 0.0 0.0 0.00 0.00 0.00 47 884.8
20260902172333 69 0.0 0.0 0.00 0.00 0.00 47 884.8
20260902165100 69 0.0 0.0 0.00 0.00 0.00 47 884.8
20260902165023 77 0.0 0.0 0.00 0.00 0.00 45 884.8
20260902164932 77 0.0 0.0 0.00 0.00 0.00 45 884.8
20260902161701 77 0.0 0.0 0.00 0.00 0.00 45 884.8
20260902161622 68 0.0 0.0 0.00 0.00 0.00 50 886.6
20260902161532 68 0.0 0.0 0.00 0.00 0.00 50 886.6
20260902161132 68 0.0 0.0 0.00 0.00 0.00 50 886.6
20260902154255 82 0.0 0.0 0.00 0.00 0.00 45 884.7
20260902154217 83 0.0 0.0 0.00 0.00 0.00 44 884.8
20260902154129 83 0.0 0.0 0.00 0.00 0.00 44 884.8
20260902150954 83 0.0 0.0 0.00 0.00 0.00 44 884.8
20260902150915 85 0.0 0.0 0.00 0.00 0.00 43 884.9
20260902150828 85 0.0 0.0 0.00 0.00 0.00 43 884.9
20260902143653 85 0.0 0.0 0.00 0.00 0.00 43 884.9
20260902143615 86 0.0 0.0 0.00 0.00 0.00 45 885.0
20260902143527 86 0.0 0.0 0.00 0.00 0.00 45 885.0
20260902140353 86 0.0 0.0 0.00 0.00 0.00 45 885.0
20260902140314 90 0.0 0.0 0.00 0.00 0.00 45 885.3
20260902140226 90 0.0 0.0 0.00 0.00 0.00 45 885.3
20260902133053 90 0.0 0.0 0.00 0.00 0.00 45 885.3
20260902132914 90 0.0 0.0 0.00 0.00 0.00 45 885.5
20260902132826 90 0.0 0.0 0.00 0.00 0.00 45 885.5
20260902125452 90 0.0 0.0 0.00 0.00 0.00 45 885.5
20260902125314 89 0.0 0.0 0.00 0.00 0.00 46 885.6
20260902125226 89 0.0 0.0 0.00 0.00 0.00 46 885.6
20260902121852 89 0.0 0.0 0.00 0.00 0.00 46 885.6
20260902121713 89 0.0 0.0 0.00 0.00 0.00 46 886.0
20260902121625 89 0.0 0.0 0.00 0.00 0.00 46 886.0
20260902114351 89 0.0 0.0 0.00 0.00 0.00 46 886.0
20260902114213 87 0.0 0.0 0.00 0.00 0.00 47 886.2
20260902114125 87 0.0 0.0 0.00 0.00 0.00 47 886.2
20260902110851 87 0.0 0.0 0.00 0.00 0.00 47 886.2
20260902110712 83 0.0 0.0 0.00 0.00 0.00 47 886.4
20260902110624 83 0.0 0.0 0.00 0.00 0.00 47 886.4
20260902103350 83 0.0 0.0 0.00 0.00 0.00 47 886.4
20260902103212 80 0.0 0.0 0.00 0.00 0.00 46 886.5
20260902103124 80 0.0 0.0 0.00 0.00 0.00 46 886.5
20260902095847 80 0.0 0.0 0.00 0.00 0.00 46 886.5
20260902095750 80 0.0 0.0 0.00 0.00 0.00 46 886.5
20260902095611 75 0.0 0.0 0.00 0.00 0.00 47 886.7
20260902095523 75 0.0 0.0 0.00 0.00 0.00 47 886.7
20260902092049 75 0.0 0.0 0.00 0.00 0.00 47 886.7
20260902091911 71 0.0 0.0 0.00 0.00 0.00 49 886.5
20260902091822 71 0.0 0.0 0.00 0.00 0.00 49 886.5
20260902091205 71 0.0 0.0 0.00 0.00 0.00 49 886.5
20260902090601 71 0.0 0.0 0.00 0.00 0.00 49 886.5
20260902084548 71 0.0 0.0 0.00 0.00 0.00 49 886.5
20260902084411 70 0.0 0.0 0.00 0.00 0.00 49 886.5
20260902084322 70 0.0 0.0 0.00 0.00 0.00 49 886.5
20260902081048 70 0.0 0.0 0.00 0.00 0.00 49 886.5
20260902081010 68 0.0 0.0 0.00 0.00 0.00 50 886.6
20260902080822 68 0.0 0.0 0.00 0.00 0.00 50 886.6
20260902073551 68 0.0 0.0 0.00 0.00 0.00 50 886.6
20260902073512 68 0.0 0.0 0.00 0.00 0.00 51 886.3
20260902073321 68 0.0 0.0 0.00 0.00 0.00 51 886.3
20260902065942 68 0.0 0.0 0.00 0.00 0.00 51 886.3
20260902065904 68 0.0 0.0 0.00 0.00 0.00 50 885.9
20260902065709 68 0.0 0.0 0.00 0.00 0.00 50 885.9
20260902062240 68 0.0 0.0 0.00 0.00 0.00 50 885.9
20260902062204 66 0.0 0.0 0.00 0.00 0.00 49 885.9
20260902062009 66 0.0 0.0 0.00 0.00 0.00 49 885.9
20260902054640 66 0.0 0.0 0.00 0.00 0.00 49 885.9
20260902054603 64 0.0 0.0 0.00 0.00 0.00 49 885.9
20260902054408 64 0.0 0.0 0.00 0.00 0.00 49 885.9
20260902051141 64 0.0 0.0 0.00 0.00 0.00 49 885.9
20260902051100 74 0.0 0.0 0.00 0.00 0.00 48 884.4
20260902050808 74 0.0 0.0 0.00 0.00 0.00 48 884.4
20260902044627 74 0.0 0.0 0.00 0.00 0.00 48 884.4
20260902043917 74 0.0 0.0 0.00 0.00 0.00 48 884.4
20260902043639 63 0.0 0.0 0.00 0.00 0.00 49 885.7
20260902043600 62 0.0 0.0 0.00 0.00 0.00 49 885.7
20260902043308 62 0.0 0.0 0.00 0.00 0.00 49 885.7
20260902040139 62 0.0 0.0 0.00 0.00 0.00 49 885.7
20260902040100 62 0.0 0.0 0.00 0.00 0.00 49 885.8
20260902035807 62 0.0 0.0 0.00 0.00 0.00 49 885.8
20260902032538 62 0.0 0.0 0.00 0.00 0.00 49 885.8
20260902032458 63 0.0 0.0 0.00 0.00 0.00 48 885.8
20260902032207 63 0.0 0.0 0.00 0.00 0.00 48 885.8
20260902025038 63 0.0 0.0 0.00 0.00 0.00 48 885.8
20260902024958 63 0.0 0.0 0.00 0.00 0.00 49 885.7
20260902024707 63 0.0 0.0 0.00 0.00 0.00 49 885.7
20260902023812 63 0.0 0.0 0.00 0.00 0.00 49 885.7
20260902021640 63 0.0 0.0 0.00 0.00 0.00 49 885.7
20260902021558 63 0.0 0.0 0.00 0.00 0.00 48 885.9
20260902021408 63 0.0 0.0 0.00 0.00 0.00 48 885.9
20260902014337 63 0.0 0.0 0.00 0.00 0.00 48 885.9
20260902014256 63 0.0 0.0 0.00 0.00 0.00 49 885.8
20260902014107 63 0.0 0.0 0.00 0.00 0.00 49 885.8
20260902010936 63 0.0 0.0 0.00 0.00 0.00 49 885.8
20260902010858 63 0.0 0.0 0.00 0.00 0.00 48 886.0
20260902010706 63 0.0 0.0 0.00 0.00 0.00 48 886.0
20260902003436 63 0.0 0.0 0.00 0.00 0.00 48 886.0
20260902003355 63 0.0 0.0 0.00 0.00 0.00 48 886.0
20260902003205 63 0.0 0.0 0.00 0.00 0.00 48 886.0
20260901235936 63 0.0 0.0 0.00 0.00 0.00 48 886.0
20260901235854 64 0.0 0.0 0.00 0.00 0.00 48 886.0
20260901235705 64 0.0 0.0 0.00 0.00 0.00 48 886.0
20260901232535 64 0.0 0.0 0.00 0.00 0.00 48 886.0
20260901232454 64 0.0 0.0 0.00 0.00 0.00 48 886.0
20260901232306 64 0.0 0.0 0.00 0.00 0.00 48 886.0
20260901225035 64 0.0 0.0 0.00 0.00 0.00 48 886.0
20260901224953 64 0.0 0.0 0.00 0.00 0.00 48 886.1
20260901224806 64 0.0 0.0 0.00 0.00 0.00 48 886.1
20260901221535 64 0.0 0.0 0.00 0.00 0.00 48 886.1
20260901221453 64 0.0 0.0 0.00 0.00 0.00 48 886.2
20260901221304 64 0.0 0.0 0.00 0.00 0.00 48 886.2
20260901213953 64 0.0 0.0 0.00 0.00 0.00 48 886.2
20260901213933 64 0.0 0.0 0.00 0.00 0.00 48 886.2
20260901213703 65 0.0 0.0 0.00 0.00 0.00 48 886.2
20260901210433 65 0.0 0.0 0.00 0.00 0.00 48 886.2
20260901210203 66 0.0 0.0 0.00 0.00 0.00 48 886.1